KG6SIB Weather Reports


Display with metric or nautical units.
time (UTC)temp
F
wind
direction
speed
MPH
gust
MPH
rain 1hr
in
rain 24hr
in
rain mn
in
humidity
%
barometer
mb
20180816160718 81 34 3.0 8.0 0.00 0.00 0.00 60 1018.9
20180816160221 80 219 6.0 6.0 0.00 0.00 0.00 59 1018.7
20180816155720 79 168 1.0 8.0 0.00 0.00 0.00 58 1018.4
20180816155219 79 219 4.0 8.0 0.00 0.00 0.00 57 1018.4
20180816154718 80 169 6.0 10.0 0.00 0.00 0.00 56 1018.3
20180816154218 79 247 8.0 10.0 0.00 0.00 0.00 56 1018.3
20180816153718 79 197 1.0 4.0 0.00 0.00 0.00 58 1018.4
20180816153217 78 195 0.0 4.0 0.00 0.00 0.00 59 1018.1
20180816152718 77 191 2.0 4.0 0.00 0.00 0.00 61 1018.1
20180816152218 76 232 2.0 3.0 0.00 0.00 0.00 61 1017.9
20180816151717 76 168 1.0 4.0 0.00 0.00 0.00 62 1018.0
20180816151217 75 205 2.0 4.0 0.00 0.00 0.00 62 1018.0
20180816150716 75 134 1.0 4.0 0.00 0.00 0.00 62 1018.0
20180816150217 75 146 1.0 3.0 0.00 0.00 0.00 63 1017.9
20180816145717 74 145 0.0 4.0 0.00 0.00 0.00 64 1018.1
20180816145217 74 167 2.0 4.0 0.00 0.00 0.00 64 1018.0
20180816144717 74 207 2.0 3.0 0.00 0.00 0.00 62 1018.0
20180816144217 75 160 2.0 2.0 0.00 0.00 0.00 62 1018.0
20180816143716 74 203 1.0 2.0 0.00 0.00 0.00 64 1017.9
20180816143216 73 129 0.0 2.0 0.00 0.00 0.00 65 1017.7
20180816142716 72 207 0.0 2.0 0.00 0.00 0.00 66 1017.7
20180816142216 72 201 0.0 2.0 0.00 0.00 0.00 67 1017.7
20180816141715 71 226 1.0 4.0 0.00 0.00 0.00 67 1017.4
20180816141216 70 32 0.0 4.0 0.00 0.00 0.00 70 1017.5
20180816140716 69 38 0.0 5.0 0.00 0.00 0.00 71 1017.3
20180816140215 68 23 4.0 6.0 0.00 0.00 0.00 73 1017.3
20180816135716 67 8 4.0 6.0 0.00 0.00 0.00 75 1017.3
20180816135215 66 353 0.0 6.0 0.00 0.00 0.00 76 1017.3
20180816134715 66 30 0.0 6.0 0.00 0.00 0.00 76 1017.3
20180816134215 66 23 4.0 7.0 0.00 0.00 0.00 76 1017.3
20180816133714 65 43 3.0 7.0 0.00 0.00 0.00 77 1017.1
20180816133215 65 49 4.0 5.0 0.00 0.00 0.00 76 1017.0
20180816132714 65 44 3.0 7.0 0.00 0.00 0.00 75 1017.0
20180816132214 65 34 4.0 7.0 0.00 0.00 0.00 76 1017.0
20180816131714 65 23 1.0 4.0 0.00 0.00 0.00 76 1016.9
20180816131214 66 65 2.0 4.0 0.00 0.00 0.00 76 1017.2
20180816130715 66 38 2.0 4.0 0.00 0.00 0.00 75 1017.0
20180816125724 65 41 3.0 5.0 0.00 0.00 0.00 76 1017.0
20180816125225 65 23 2.0 4.0 0.00 0.00 0.00 75 1016.9
20180816124724 66 35 3.0 5.0 0.00 0.00 0.00 76 1016.9
20180816124224 65 28 4.0 5.0 0.00 0.00 0.00 77 1016.8
20180816123724 65 83 4.0 5.0 0.00 0.00 0.00 76 1016.7
20180816123223 65 36 4.0 5.0 0.00 0.00 0.00 75 1016.7
20180816122723 66 25 4.0 5.0 0.00 0.00 0.00 76 1016.6
20180816122224 66 49 4.0 6.0 0.00 0.00 0.00 75 1016.6
20180816121724 66 52 3.0 6.0 0.00 0.00 0.00 76 1016.5
20180816121224 65 37 3.0 5.0 0.00 0.00 0.00 76 1016.5
20180816120722 65 67 3.0 5.0 0.00 0.00 0.00 76 1016.5
20180816120222 65 45 3.0 5.0 0.00 0.00 0.00 76 1016.5
20180816115724 65 56 3.0 5.0 0.00 0.00 0.00 76 1016.6
20180816115223 65 56 4.0 5.0 0.00 0.00 0.00 76 1016.7
20180816114722 65 30 2.0 5.0 0.00 0.00 0.00 76 1016.6
20180816114223 65 39 3.0 5.0 0.00 0.00 0.00 76 1016.6
20180816113723 65 47 4.0 6.0 0.00 0.00 0.00 75 1016.6
20180816113223 65 63 5.0 6.0 0.00 0.00 0.00 75 1016.6
20180816112722 65 30 4.0 6.0 0.00 0.00 0.00 76 1016.7
20180816112222 65 37 4.0 6.0 0.00 0.00 0.00 75 1016.6
20180816111722 65 38 4.0 6.0 0.00 0.00 0.00 75 1016.6
20180816111222 65 45 3.0 6.0 0.00 0.00 0.00 75 1016.5
20180816110722 65 44 4.0 5.0 0.00 0.00 0.00 75 1016.5
20180816110221 65 45 4.0 6.0 0.00 0.00 0.00 74 1016.5
20180816105721 65 48 5.0 6.0 0.00 0.00 0.00 75 1016.7
20180816105220 65 32 4.0 6.0 0.00 0.00 0.00 74 1016.6
20180816104722 65 37 4.0 6.0 0.00 0.00 0.00 74 1016.6
20180816104220 65 37 3.0 6.0 0.00 0.00 0.00 74 1016.6
20180816103720 66 41 4.0 6.0 0.00 0.00 0.00 73 1016.5
20180816103220 66 60 3.0 5.0 0.00 0.00 0.00 73 1016.5
20180816102720 66 33 3.0 6.0 0.00 0.00 0.00 73 1016.5
20180816102219 66 44 5.0 6.0 0.00 0.00 0.00 73 1016.4
20180816101721 66 37 5.0 5.0 0.00 0.00 0.00 73 1016.4
20180816101221 66 48 3.0 4.0 0.00 0.00 0.00 72 1016.4
20180816100720 67 44 3.0 4.0 0.00 0.00 0.00 72 1016.7
20180816100220 67 44 3.0 6.0 0.00 0.00 0.00 71 1016.6
20180816095720 67 51 3.0 6.0 0.00 0.00 0.00 72 1016.8
20180816095220 67 30 5.0 6.0 0.00 0.00 0.00 72 1016.8
20180816094718 67 42 5.0 6.0 0.00 0.00 0.00 72 1016.9
20180816094219 67 27 5.0 6.0 0.00 0.00 0.00 72 1016.9
20180816093719 67 40 4.0 6.0 0.00 0.00 0.00 73 1016.9
20180816093220 67 39 4.0 5.0 0.00 0.00 0.00 74 1016.9
20180816092718 67 28 4.0 5.0 0.00 0.00 0.00 73 1016.9
20180816092217 67 33 4.0 5.0 0.00 0.00 0.00 73 1017.0
20180816091720 67 44 2.0 6.0 0.00 0.00 0.00 73 1017.0
20180816091218 67 53 2.0 6.0 0.00 0.00 0.00 73 1017.0
20180816090718 67 36 4.0 6.0 0.00 0.00 0.00 73 1017.0
20180816090217 67 27 3.0 5.0 0.00 0.00 0.00 74 1017.1
20180816085719 67 25 4.0 4.0 0.00 0.00 0.00 74 1016.9
20180816085218 67 31 2.0 4.0 0.00 0.00 0.00 75 1016.8
20180816084717 66 72 2.0 5.0 0.00 0.00 0.00 75 1016.9
20180816084217 67 36 2.0 5.0 0.00 0.00 0.00 74 1016.8
20180816083717 67 24 1.0 6.0 0.00 0.00 0.00 74 1016.9
20180816083218 66 41 3.0 6.0 0.00 0.00 0.00 74 1017.0
20180816082716 66 51 4.0 6.0 0.00 0.00 0.00 75 1017.0
20180816082217 66 53 3.0 6.0 0.00 0.00 0.00 74 1017.0
20180816081717 66 51 5.0 5.0 0.00 0.00 0.00 74 1017.0
20180816081216 66 54 3.0 5.0 0.00 0.00 0.00 74 1017.1
20180816080716 67 50 3.0 5.0 0.00 0.00 0.00 73 1017.1
20180816080217 67 55 2.0 4.0 0.00 0.00 0.00 73 1017.2
20180816075715 67 58 3.0 6.0 0.00 0.00 0.00 72 1017.4
20180816075217 67 60 4.0 6.0 0.00 0.00 0.00 72 1017.5
20180816074715 68 38 3.0 6.0 0.00 0.00 0.00 71 1017.3
20180816074216 68 51 2.0 7.0 0.00 0.00 0.00 70 1017.5
20180816073716 67 25 4.0 7.0 0.00 0.00 0.00 71 1017.4
20180816073214 68 51 4.0 6.0 0.00 0.00 0.00 70 1017.4
20180816072716 68 50 2.0 7.0 0.00 0.00 0.00 71 1017.3
20180816072215 68 56 5.0 7.0 0.00 0.00 0.00 71 1017.4
20180816071715 67 47 3.0 6.0 0.00 0.00 0.00 71 1017.4
20180816071214 67 48 3.0 6.0 0.00 0.00 0.00 70 1017.4
20180816070714 68 54 6.0 6.0 0.00 0.00 0.00 70 1017.3
20180816065711 68 33 4.0 4.0 0.00 0.00 0.00 70 1017.3
20180816065211 68 48 2.0 4.0 0.00 0.00 0.00 69 1017.3
20180816064711 68 52 3.0 5.0 0.00 0.00 0.00 68 1017.3
20180816064210 68 51 3.0 5.0 0.00 0.00 0.00 68 1017.3
20180816063710 68 49 3.0 6.0 0.00 0.00 0.00 68 1017.3
20180816063211 68 43 3.0 6.0 0.00 0.00 0.00 68 1017.4
20180816062710 68 32 4.0 5.0 0.00 0.00 0.00 69 1017.3
20180816062209 68 49 2.0 5.0 0.00 0.00 0.00 69 1017.2
20180816061710 68 37 3.0 6.0 0.00 0.00 0.00 68 1017.3
20180816061209 69 34 3.0 6.0 0.00 0.00 0.00 69 1017.5
20180816060710 69 33 6.0 6.0 0.00 0.00 0.00 69 1017.5
20180816060210 69 47 3.0 5.0 0.00 0.00 0.00 68 1017.4
20180816055709 69 47 3.0 6.0 0.00 0.00 0.00 68 1017.0
20180816055211 69 32 3.0 6.0 0.00 0.00 0.00 70 1017.0
20180816054710 69 33 3.0 4.0 0.00 0.00 0.00 69 1017.0
20180816054209 69 28 3.0 4.0 0.00 0.00 0.00 70 1017.0
20180816053709 69 32 3.0 6.0 0.00 0.00 0.00 70 1017.0
20180816053209 69 40 3.0 6.0 0.00 0.00 0.00 69 1017.0
20180816052709 69 46 4.0 6.0 0.00 0.00 0.00 70 1016.9
20180816052208 69 60 3.0 6.0 0.00 0.00 0.00 70 1016.9
20180816051708 69 29 3.0 6.0 0.00 0.00 0.00 71 1016.9
20180816051209 69 30 4.0 5.0 0.00 0.00 0.00 71 1016.8
20180816050707 69 49 2.0 5.0 0.00 0.00 0.00 71 1016.8
20180816050209 69 23 3.0 5.0 0.00 0.00 0.00 71 1016.8
20180816045709 69 39 3.0 5.0 0.00 0.00 0.00 71 1016.7
20180816045209 69 25 2.0 5.0 0.00 0.00 0.00 72 1016.7
20180816044707 69 27 3.0 5.0 0.00 0.00 0.00 73 1016.6
20180816044208 69 23 5.0 6.0 0.00 0.00 0.00 75 1016.7
20180816043707 68 49 3.0 6.0 0.00 0.00 0.00 76 1016.3
20180816043206 68 35 3.0 5.0 0.00 0.00 0.00 77 1016.3
20180816042707 68 21 3.0 4.0 0.00 0.00 0.00 77 1016.3
20180816042207 67 23 2.0 4.0 0.00 0.00 0.00 78 1016.1
20180816041707 67 52 2.0 3.0 0.00 0.00 0.00 78 1016.0
20180816041206 67 2 2.0 3.0 0.00 0.00 0.00 78 1015.9
20180816040706 67 41 1.0 2.0 0.00 0.00 0.00 78 1015.9
20180816040236 67 54 1.0 3.0 0.00 0.00 0.00 78 1015.9
20180816035707 67 39 0.0 3.0 0.00 0.00 0.00 79 1015.5
20180816035211 68 40 1.0 2.0 0.00 0.00 0.00 79 1015.7
20180816034708 68 62 2.0 2.0 0.00 0.00 0.00 80 1015.7
20180816034206 68 226 0.0 0.0 0.00 0.00 0.00 80 1015.8
20180816033706 68 226 0.0 2.0 0.00 0.00 0.00 79 1015.8
20180816033205 69 226 0.0 2.0 0.00 0.00 0.00 79 1015.7
20180816032707 69 204 0.0 1.0 0.00 0.00 0.00 79 1015.6
20180816032209 69 187 1.0 1.0 0.00 0.00 0.00 78 1015.6
20180816031708 69 205 1.0 1.0 0.00 0.00 0.00 77 1015.5
20180816031204 70 203 0.0 0.0 0.00 0.00 0.00 77 1015.6
20180816030707 70 223 0.0 1.0 0.00 0.00 0.00 77 1015.6
20180816030205 70 223 0.0 2.0 0.00 0.00 0.00 77 1015.6
20180816025705 70 217 0.0 2.0 0.00 0.00 0.00 77 1015.3
20180816025204 70 220 1.0 2.0 0.00 0.00 0.00 76 1015.3
20180816024705 71 187 0.0 2.0 0.00 0.00 0.00 75 1015.3
20180816024204 71 174 1.0 2.0 0.00 0.00 0.00 75 1015.2
20180816023703 71 162 1.0 3.0 0.00 0.00 0.00 75 1015.2
20180816023204 71 188 1.0 4.0 0.00 0.00 0.00 74 1015.1
20180816022704 72 206 2.0 4.0 0.00 0.00 0.00 73 1015.5
20180816022204 72 153 1.0 4.0 0.00 0.00 0.00 72 1015.4
20180816021704 73 241 3.0 5.0 0.00 0.00 0.00 72 1015.4
20180816021202 73 212 1.0 5.0 0.00 0.00 0.00 71 1015.3
20180816020703 73 231 4.0 5.0 0.00 0.00 0.00 70 1015.2
20180816020234 74 276 3.0 7.0 0.00 0.00 0.00 70 1015.5
20180816015703 74 251 2.0 7.0 0.00 0.00 0.00 69 1014.5
20180816015202 75 254 4.0 6.0 0.00 0.00 0.00 68 1014.5
20180816014702 75 242 5.0 6.0 0.00 0.00 0.00 67 1014.3
20180816014232 75 215 4.0 7.0 0.00 0.00 0.00 67 1014.3
20180816013732 76 274 2.0 7.0 0.00 0.00 0.00 66 1014.7
20180816013233 76 162 5.0 7.0 0.00 0.00 0.00 66 1014.5
20180816012732 76 218 2.0 6.0 0.00 0.00 0.00 66 1014.5
20180816012234 76 269 5.0 7.0 0.00 0.00 0.00 65 1014.6
20180816011732 77 281 3.0 7.0 0.00 0.00 0.00 64 1014.5
20180816011233 77 260 0.0 7.0 0.00 0.00 0.00 64 1014.3
20180816010732 77 255 5.0 7.0 0.00 0.00 0.00 63 1014.3
20180816005722 78 233 2.0 7.0 0.00 0.00 0.00 63 1013.9
20180816005222 78 300 2.0 7.0 0.00 0.00 0.00 63 1013.8
20180816004720 77 202 6.0 9.0 0.00 0.00 0.00 64 1013.9
20180816004220 77 250 4.0 9.0 0.00 0.00 0.00 64 1013.9
20180816003719 77 183 4.0 9.0 0.00 0.00 0.00 63 1013.8
20180816003219 77 217 3.0 8.0 0.00 0.00 0.00 64 1013.9
20180816002720 77 249 5.0 9.0 0.00 0.00 0.00 63 1013.8
20180816002219 78 250 5.0 9.0 0.00 0.00 0.00 62 1013.9
20180816001719 79 225 7.0 9.0 0.00 0.00 0.00 61 1014.1
20180816001219 79 307 3.0 9.0 0.00 0.00 0.00 61 1014.2
20180816000719 79 249 6.0 11.0 0.00 0.00 0.00 61 1014.2
20180816000220 79 262 3.0 11.0 0.00 0.00 0.00 61 1014.2
20180815235718 79 260 4.0 12.0 0.00 0.00 0.00 60 1014.3
20180815235218 79 240 2.0 12.0 0.00 0.00 0.00 60 1014.3
20180815234718 79 235 3.0 11.0 0.00 0.00 0.00 60 1014.3
20180815234220 80 285 9.0 15.0 0.00 0.00 0.00 60 1014.2
20180815233719 80 274 8.0 15.0 0.00 0.00 0.00 59 1014.3
20180815233219 80 307 7.0 11.0 0.00 0.00 0.00 58 1014.3
20180815232718 81 259 7.0 11.0 0.00 0.00 0.00 57 1014.6
20180815232217 81 284 7.0 12.0 0.00 0.00 0.00 57 1014.6
20180815231719 81 262 2.0 12.0 0.00 0.00 0.00 57 1014.6
20180815231218 81 272 3.0 13.0 0.00 0.00 0.00 57 1014.6
20180815230719 81 276 4.0 13.0 0.00 0.00 0.00 57 1014.5
20180815230217 81 270 7.0 11.0 0.00 0.00 0.00 56 1014.6
20180815225717 82 282 7.0 11.0 0.00 0.00 0.00 56 1014.6
20180815225217 82 224 4.0 11.0 0.00 0.00 0.00 56 1014.6
20180815224718 82 287 5.0 12.0 0.00 0.00 0.00 55 1014.6
20180815224217 82 220 7.0 12.0 0.00 0.00 0.00 55 1014.5
20180815223717 82 271 5.0 11.0 0.00 0.00 0.00 55 1014.5
20180815223217 82 267 5.0 11.0 0.00 0.00 0.00 55 1014.6
20180815222716 82 220 7.0 13.0 0.00 0.00 0.00 55 1014.5
20180815222216 82 338 4.0 14.0 0.00 0.00 0.00 54 1014.5
20180815221718 83 271 10.0 14.0 0.00 0.00 0.00 53 1014.7
20180815221217 83 306 2.0 13.0 0.00 0.00 0.00 53 1014.7
20180815220715 84 290 6.0 14.0 0.00 0.00 0.00 53 1014.7
20180815220215 84 247 10.0 14.0 0.00 0.00 0.00 52 1015.0
20180815215716 85 201 5.0 10.0 0.00 0.00 0.00 50 1015.4
20180815215214 86 165 4.0 11.0 0.00 0.00 0.00 51 1015.5
20180815214714 85 6 9.0 13.0 0.00 0.00 0.00 51 1015.3
20180815214215 85 66 5.0 13.0 0.00 0.00 0.00 53 1015.4
20180815213714 84 285 3.0 12.0 0.00 0.00 0.00 52 1015.4
20180815213216 83 202 8.0 14.0 0.00 0.00 0.00 52 1015.2
20180815212714 83 200 8.0 14.0 0.00 0.00 0.00 52 1015.1
20180815212215 83 233 10.0 15.0 0.00 0.00 0.00 53 1015.0
20180815211714 83 284 3.0 17.0 0.00 0.00 0.00 54 1015.0
20180815211213 82 227 7.0 17.0 0.00 0.00 0.00 55 1014.8
20180815210714 82 290 6.0 13.0 0.00 0.00 0.00 53 1014.8
20180815210216 82 283 5.0 12.0 0.00 0.00 0.00 55 1015.2
20180815205713 82 274 7.0 12.0 0.00 0.00 0.00 54 1015.3
20180815205215 83 242 4.0 11.0 0.00 0.00 0.00 53 1015.3
20180815204718 83 203 1.0 13.0 0.00 0.00 0.00 53 1015.2
20180815204214 82 226 6.0 15.0 0.00 0.00 0.00 54 1015.0
20180815203713 82 308 3.0 15.0 0.00 0.00 0.00 53 1015.2
20180815203213 83 131 2.0 11.0 0.00 0.00 0.00 53 1015.4
20180815202712 83 283 8.0 11.0 0.00 0.00 0.00 53 1015.3
20180815202213 84 295 10.0 14.0 0.00 0.00 0.00 51 1015.3
20180815201713 83 242 10.0 14.0 0.00 0.00 0.00 53 1015.3
20180815201213 83 234 10.0 13.0 0.00 0.00 0.00 52 1015.3
20180815200712 82 300 7.0 13.0 0.00 0.00 0.00 53 1015.0
20180815200212 83 259 9.0 12.0 0.00 0.00 0.00 51 1015.1
20180815195712 83 252 5.0 12.0 0.00 0.00 0.00 52 1015.3
20180815195212 82 301 2.0 12.0 0.00 0.00 0.00 53 1015.1
20180815194713 82 282 8.0 11.0 0.00 0.00 0.00 53 1015.1
20180815194212 82 288 5.0 11.0 0.00 0.00 0.00 53 1015.1
20180815193711 82 216 5.0 12.0 0.00 0.00 0.00 54 1015.2
20180815193213 82 284 10.0 12.0 0.00 0.00 0.00 53 1015.1
20180815192711 82 96 2.0 11.0 0.00 0.00 0.00 52 1015.1
20180815192211 83 219 6.0 11.0 0.00 0.00 0.00 52 1015.4
20180815191711 83 240 4.0 12.0 0.00 0.00 0.00 52 1015.4
20180815191210 83 257 6.0 12.0 0.00 0.00 0.00 50 1015.3
20180815190711 82 264 5.0 10.0 0.00 0.00 0.00 53 1015.2
20180815185724 83 297 7.0 10.0 0.00 0.00 0.00 51 1015.4
20180815185223 83 264 3.0 10.0 0.00 0.00 0.00 50 1015.4
20180815184722 83 229 8.0 10.0 0.00 0.00 0.00 51 1015.4
20180815184223 82 211 3.0 10.0 0.00 0.00 0.00 51 1015.4
20180815183722 81 248 2.0 9.0 0.00 0.00 0.00 53 1015.3
20180815183223 81 296 5.0 9.0 0.00 0.00 0.00 53 1015.3
20180815182723 81 288 4.0 9.0 0.00 0.00 0.00 53 1015.3
20180815182223 81 262 3.0 9.0 0.00 0.00 0.00 54 1015.4
20180815181722 81 296 4.0 9.0 0.00 0.00 0.00 53 1015.4
20180815181221 81 264 5.0 9.0 0.00 0.00 0.00 54 1015.4
20180815180721 81 195 4.0 11.0 0.00 0.00 0.00 55 1015.5
20180815180221 80 230 9.0 11.0 0.00 0.00 0.00 55 1015.5
20180815175723 81 264 4.0 11.0 0.00 0.00 0.00 54 1015.5
20180815175221 80 191 5.0 11.0 0.00 0.00 0.00 55 1015.5
20180815174722 81 244 5.0 9.0 0.00 0.00 0.00 54 1015.5
20180815174220 80 248 7.0 9.0 0.00 0.00 0.00 54 1015.5
20180815173720 80 230 5.0 10.0 0.00 0.00 0.00 54 1015.5
20180815173221 79 209 5.0 10.0 0.00 0.00 0.00 55 1015.4
20180815172720 79 217 5.0 9.0 0.00 0.00 0.00 55 1015.4
20180815172219 79 245 7.0 9.0 0.00 0.00 0.00 56 1015.5
20180815171721 79 233 8.0 9.0 0.00 0.00 0.00 55 1015.4
20180815171220 79 239 5.0 9.0 0.00 0.00 0.00 55 1015.5
20180815170720 79 281 5.0 7.0 0.00 0.00 0.00 56 1015.5
20180815170219 79 245 2.0 7.0 0.00 0.00 0.00 56 1015.4
20180815165720 79 197 6.0 7.0 0.00 0.00 0.00 56 1015.7
20180815165219 78 247 4.0 6.0 0.00 0.00 0.00 57 1015.4
20180815164720 77 237 0.0 10.0 0.00 0.00 0.00 58 1015.4
20180815164218 77 266 4.0 10.0 0.00 0.00 0.00 59 1015.4
20180815163718 76 153 5.0 8.0 0.00 0.00 0.00 60 1015.1
20180815163220 77 252 4.0 8.0 0.00 0.00 0.00 59 1015.4
20180815162718 76 230 3.0 11.0 0.00 0.00 0.00 62 1015.2
20180815162218 75 255 7.0 11.0 0.00 0.00 0.00 61 1015.1
20180815161718 76 251 6.0 9.0 0.00 0.00 0.00 60 1015.0
20180815161218 77 206 4.0 8.0 0.00 0.00 0.00 59 1015.4